GW2160 Weather Reports


Display with metric or nautical units.
time (UTC)temp
F
wind
direction
speed
MPH
gust
MPH
rain 1hr
in
rain 24hr
in
rain mn
in
humidity
%
barometer
mb
20260505004024 73 205 7.0 14.0 0.00 0.00 0.00 57 1009.5
20260505003527 73 206 6.0 14.0 0.00 0.00 0.00 57 1009.5
20260505003039 73 203 7.0 14.0 0.00 0.00 0.00 55 1009.3
20260505002527 74 165 6.0 12.0 0.00 0.00 0.00 55 1009.4
20260505002024 74 192 6.0 14.0 0.00 0.00 0.00 55 1009.4
20260505001547 74 189 8.0 14.0 0.00 0.00 0.00 54 1009.3
20260505001023 74 204 6.0 14.0 0.00 0.00 0.00 55 1009.3
20260505000524 74 188 7.0 14.0 0.00 0.00 0.00 54 1009.3
20260505000041 74 172 6.0 13.0 0.00 0.00 0.00 55 1009.3
20260504235526 75 122 7.0 12.0 0.00 0.00 0.00 53 1009.3
20260504235025 75 205 5.0 12.0 0.00 0.00 0.00 54 1009.3
20260504234546 75 123 7.0 11.0 0.00 0.00 0.00 55 1009.3
20260504234024 75 149 6.0 12.0 0.00 0.00 0.00 54 1009.2
20260504233525 75 139 6.0 14.0 0.00 0.00 0.00 52 1009.1
20260504233036 75 205 7.0 14.0 0.00 0.00 0.00 55 1009.2
20260504232525 75 210 9.0 14.0 0.00 0.00 0.00 54 1009.2
20260504232024 75 205 7.0 14.0 0.00 0.00 0.00 53 1009.2
20260504231554 76 203 7.0 13.0 0.00 0.00 0.00 54 1009.3
20260504231027 76 221 6.0 13.0 0.00 0.00 0.00 50 1009.3
20260504230525 76 193 6.0 12.0 0.00 0.00 0.00 51 1009.3
20260504230038 76 176 8.0 14.0 0.00 0.00 0.00 53 1009.4
20260504225524 76 222 6.0 14.0 0.00 0.00 0.00 52 1009.5
20260504225023 76 169 6.0 13.0 0.00 0.00 0.00 52 1009.6
20260504224539 76 193 7.0 13.0 0.00 0.00 0.00 53 1009.5
20260504224027 76 202 5.0 14.0 0.00 0.00 0.00 51 1009.5
20260504223527 76 141 6.0 14.0 0.00 0.00 0.00 52 1009.6
20260504223035 76 218 7.0 14.0 0.00 0.00 0.00 52 1009.6
20260504222525 76 207 5.0 13.0 0.00 0.00 0.00 52 1009.7
20260504222024 75 207 6.0 13.0 0.00 0.00 0.00 52 1009.7
20260504221546 75 183 8.0 13.0 0.00 0.00 0.00 53 1009.7
20260504221024 75 186 7.0 12.0 0.00 0.00 0.00 53 1009.8
20260504220525 75 171 6.0 12.0 0.00 0.00 0.00 53 1009.7
20260504220039 75 207 6.0 11.0 0.00 0.00 0.00 53 1009.9
20260504215525 75 225 5.0 12.0 0.00 0.00 0.00 56 1009.8
20260504215028 75 198 7.0 12.0 0.00 0.00 0.00 56 1009.9
20260504214537 74 140 7.0 11.0 0.00 0.00 0.00 56 1009.9
20260504214028 74 200 6.0 13.0 0.00 0.00 0.00 57 1010.0
20260504213525 74 208 6.0 13.0 0.00 0.00 0.00 58 1010.0
20260504213035 74 217 7.0 14.0 0.00 0.00 0.00 56 1010.0
20260504212527 74 219 6.0 14.0 0.00 0.00 0.00 57 1010.1
20260504212024 74 148 6.0 12.0 0.00 0.00 0.00 57 1010.0
20260504211539 74 129 7.0 13.0 0.00 0.00 0.00 58 1010.2
20260504211024 73 178 6.0 13.0 0.00 0.00 0.00 60 1010.2
20260504210527 73 122 4.0 12.0 0.00 0.00 0.00 57 1010.2
20260504205526 73 200 7.0 12.0 0.00 0.00 0.00 58 1010.3
20260504205025 73 218 7.0 12.0 0.00 0.00 0.00 60 1010.3
20260504204546 72 148 6.0 12.0 0.00 0.00 0.00 59 1010.4
20260504204025 72 198 6.0 12.0 0.00 0.00 0.00 60 1010.4
20260504203525 72 204 6.0 11.0 0.00 0.00 0.00 60 1010.4
20260504203044 72 217 3.0 15.0 0.00 0.00 0.00 59 1010.4
20260504202525 72 203 6.0 15.0 0.00 0.00 0.00 60 1010.3
20260504202024 72 219 6.0 13.0 0.00 0.00 0.00 62 1010.3
20260504201540 72 155 6.0 11.0 0.00 0.00 0.00 61 1010.3
20260504201025 72 200 6.0 11.0 0.00 0.00 0.00 63 1010.3
20260504200525 71 168 6.0 11.0 0.00 0.00 0.00 60 1010.3
20260504200042 71 209 3.0 11.0 0.00 0.00 0.00 61 1010.4
20260504195525 70 207 5.0 13.0 0.00 0.00 0.00 64 1010.5
20260504195025 70 150 5.0 13.0 0.00 0.00 0.00 62 1010.4
20260504194559 70 199 7.0 14.0 0.00 0.00 0.00 65 1010.4
20260504194025 70 231 5.0 14.0 0.00 0.00 0.00 63 1010.5
20260504193525 70 134 5.0 11.0 0.00 0.00 0.00 62 1010.5
20260504193038 69 155 6.0 14.0 0.00 0.00 0.00 64 1010.5
20260504192525 69 203 5.0 14.0 0.00 0.00 0.00 64 1010.6
20260504192029 69 143 5.0 15.0 0.00 0.00 0.00 66 1010.6
20260504191546 68 215 3.0 15.0 0.00 0.00 0.00 64 1010.8
20260504191024 68 140 8.0 15.0 0.00 0.00 0.00 65 1010.7
20260504190525 68 167 6.0 12.0 0.00 0.00 0.00 66 1010.7
20260504190045 67 252 5.0 12.0 0.00 0.00 0.00 67 1010.7
20260504185528 67 237 5.0 11.0 0.00 0.00 0.00 68 1010.8
20260504185026 67 163 6.0 13.0 0.00 0.00 0.00 69 1010.8
20260504184539 66 168 5.0 14.0 0.00 0.00 0.00 69 1010.9
20260504184025 66 198 7.0 14.0 0.00 0.00 0.00 68 1010.9
20260504183528 66 214 5.0 11.0 0.00 0.00 0.00 70 1010.9
20260504183040 65 193 5.0 11.0 0.00 0.00 0.00 70 1011.0
20260504182524 65 174 5.0 10.0 0.00 0.00 0.00 70 1011.0
20260504182024 65 198 5.0 10.0 0.00 0.00 0.00 72 1010.9
20260504181545 64 146 6.0 10.0 0.00 0.00 0.00 73 1011.0
20260504181024 64 205 5.0 10.0 0.00 0.00 0.00 74 1010.9
20260504180525 64 225 4.0 8.0 0.00 0.00 0.00 74 1010.9
20260504180106 64 187 4.0 11.0 0.00 0.00 0.00 74 1011.0
20260504175525 64 209 5.0 11.0 0.00 0.00 0.00 75 1010.9
20260504175025 63 207 5.0 10.0 0.00 0.00 0.00 76 1010.9
20260504174536 63 207 5.0 10.0 0.00 0.00 0.00 75 1010.9
20260504174024 62 193 5.0 10.0 0.00 0.00 0.00 77 1010.9
20260504173524 62 207 4.0 11.0 0.00 0.00 0.00 76 1010.9
20260504173053 62 141 4.0 11.0 0.00 0.00 0.00 77 1010.9
20260504172521 62 211 6.0 11.0 0.00 0.00 0.00 77 1010.9
20260504172025 61 172 6.0 10.0 0.00 0.00 0.00 77 1010.9
20260504171540 61 143 3.0 9.0 0.00 0.00 0.00 79 1010.8
20260504171024 61 188 4.0 9.0 0.00 0.00 0.00 79 1010.9
20260504170524 61 212 4.0 9.0 0.00 0.00 0.00 81 1010.9
20260504151023 56 110 2.0 4.0 0.00 0.00 0.00 85 1010.3
20260504150524 55 134 1.0 4.0 0.00 0.00 0.00 86 1010.3
20260504141031 53 148 0.0 1.0 0.00 0.00 0.00 90 1010.1
20260504140524 52 148 0.0 1.0 0.00 0.00 0.00 91 1010.1
20260504130525 50 148 0.0 3.0 0.00 0.00 0.00 92 1009.6
20260504120107 51 0 0.0 1.0 0.00 0.00 0.00 91 1009.2
20260504110527 52 108 0.0 0.0 0.00 0.00 0.00 89 1009.1
20260504100525 53 0 0.0 0.0 0.00 0.00 0.00 88 1009.0
20260504081536 56 0 0.0 1.0 0.00 0.00 0.00 83 1008.9
20260504081028 57 108 0.0 1.0 0.00 0.00 0.00 83 1008.9
20260504080524 57 108 0.0 1.0 0.00 0.00 0.00 83 1008.9
20260504050525 63 0 0.0 0.0 0.00 0.00 0.00 73 1008.6
20260504050104 64 0 0.0 0.0 0.00 0.00 0.00 72 1008.6
20260504045524 64 0 0.0 0.0 0.00 0.00 0.00 72 1008.6
20260504045023 64 0 0.0 1.0 0.00 0.00 0.00 68 1008.5
20260504044536 64 0 0.0 2.0 0.00 0.00 0.00 67 1008.5
20260504044024 64 137 0.0 2.0 0.00 0.00 0.00 72 1008.6
20260504043529 65 137 1.0 2.0 0.00 0.00 0.00 69 1008.6
20260504043035 65 136 0.0 2.0 0.00 0.00 0.00 68 1008.5
20260504042524 65 134 1.0 2.0 0.00 0.00 0.00 69 1008.4
20260504042024 65 139 1.0 2.0 0.00 0.00 0.00 66 1008.3
20260504041541 66 0 1.0 2.0 0.00 0.00 0.00 71 1008.3
20260504041025 67 129 1.0 2.0 0.00 0.00 0.00 59 1008.3
20260504040525 67 125 1.0 2.0 0.00 0.00 0.00 68 1008.2
20260504040042 67 124 1.0 2.0 0.00 0.00 0.00 58 1008.2
20260504035525 68 124 1.0 1.0 0.00 0.00 0.00 58 1008.1
20260504035025 68 124 0.0 1.0 0.00 0.00 0.00 62 1008.1
20260504034546 69 124 1.0 1.0 0.00 0.00 0.00 58 1008.1
20260504034030 70 124 0.0 1.0 0.00 0.00 0.00 59 1008.0
20260504033534 71 124 0.0 1.0 0.00 0.00 0.00 59 1008.1
20260504033039 73 124 0.0 1.0 0.00 0.00 0.00 53 1008.0
20260504032525 74 124 0.0 2.0 0.00 0.00 0.00 47 1008.0
20260504032025 75 124 0.0 4.0 0.00 0.00 0.00 44 1008.0
20260504031601 76 122 1.0 4.0 0.00 0.00 0.00 41 1008.0
20260504031024 76 113 1.0 3.0 0.00 0.00 0.00 42 1008.0
20260504030526 77 104 1.0 2.0 0.00 0.00 0.00 41 1008.0
20260504030044 77 70 1.0 2.0 0.00 0.00 0.00 40 1008.0
20260504025530 78 59 1.0 2.0 0.00 0.00 0.00 39 1008.1
20260504025024 78 77 0.0 3.0 0.00 0.00 0.00 40 1008.0
20260504024542 79 116 1.0 3.0 0.00 0.00 0.00 40 1008.0
20260504024029 80 40 2.0 4.0 0.00 0.00 0.00 37 1008.0
20260504023524 80 37 2.0 4.0 0.00 0.00 0.00 36 1008.0
20260504023038 81 32 2.0 4.0 0.00 0.00 0.00 35 1007.9
20260504022526 80 93 2.0 6.0 0.00 0.00 0.00 37 1008.0
20260504022024 79 58 3.0 6.0 0.00 0.00 0.00 37 1008.0
20260504021535 79 28 4.0 7.0 0.00 0.00 0.00 40 1008.0
20260504021024 80 38 4.0 7.0 0.00 0.00 0.00 39 1008.0
20260504020524 82 51 4.0 8.0 0.00 0.00 0.00 35 1008.0
20260504020039 82 38 4.0 8.0 0.00 0.00 0.00 34 1007.9
20260504015525 82 7 4.0 7.0 0.00 0.00 0.00 34 1008.0
20260504015025 82 29 4.0 7.0 0.00 0.00 0.00 34 1008.0
20260504014543 82 6 4.0 9.0 0.00 0.00 0.00 38 1008.1
20260504014026 82 38 5.0 9.0 0.00 0.00 0.00 34 1008.1
20260504013525 82 20 5.0 7.0 0.00 0.00 0.00 35 1008.1
20260504013041 82 61 4.0 7.0 0.00 0.00 0.00 35 1008.1
20260504012525 83 15 4.0 7.0 0.00 0.00 0.00 34 1008.2
20260504012025 83 46 4.0 7.0 0.00 0.00 0.00 34 1008.2
20260504011537 83 35 3.0 6.0 0.00 0.00 0.00 33 1008.2
20260504011024 83 31 3.0 6.0 0.00 0.00 0.00 34 1008.2
20260504010528 82 37 3.0 6.0 0.00 0.00 0.00 35 1008.2
20260504010042 82 32 2.0 4.0 0.00 0.00 0.00 38 1008.3
20260504005525 81 24 1.0 4.0 0.00 0.00 0.00 42 1008.3
20260504005025 81 31 2.0 4.0 0.00 0.00 0.00 37 1008.5
20260504004535 81 26 3.0 4.0 0.00 0.00 0.00 38 1008.5